EJU54WH LPPT-LPMA

Flight info

Callsign EJU54WH
Flight time N/A
Altitude 37000
Route ULVOT DCT GALPA DCT RAKUN
Aircraft A20N/M-SDE2E3FGHIRWXY/LB1

Departure

Time 2026-05-07 17:57
Airport Lisbon Humberto Delgado Airport (LPPT)

Arrival

Time N/A
Airport Cristiano Ronaldo International Airport (LPMA)
Time Latitude Longitude Altitude Speed Heading
2026-05-07 16:47 38.77028 -9.13090 329 ft 0 kts 79°
2026-05-07 17:45 38.77026 -9.13103 330 ft 2 kts 76°
2026-05-07 17:45 38.77023 -9.13122 330 ft 2 kts 80°
2026-05-07 17:46 38.77021 -9.13141 331 ft 2 kts 79°
2026-05-07 17:46 38.77019 -9.13153 331 ft 2 kts 72°
2026-05-07 17:46 38.77010 -9.13167 332 ft 2 kts 25°
2026-05-07 17:46 38.76997 -9.13170 332 ft 0 kts 352°
2026-05-07 17:47 38.76991 -9.13168 332 ft 1 kts 347°
2026-05-07 17:47 38.76990 -9.13168 332 ft 0 kts 347°
2026-05-07 17:51 38.77001 -9.13171 332 ft 3 kts 347°
2026-05-07 17:51 38.77023 -9.13194 331 ft 5 kts 295°
2026-05-07 17:51 38.77018 -9.13251 332 ft 8 kts 242°
2026-05-07 17:51 38.76961 -9.13278 332 ft 11 kts 172°
2026-05-07 17:52 38.76891 -9.13262 333 ft 9 kts 168°
2026-05-07 17:52 38.76826 -9.13244 334 ft 9 kts 168°
2026-05-07 17:52 38.76767 -9.13270 334 ft 9 kts 247°
2026-05-07 17:52 38.76750 -9.13353 335 ft 9 kts 251°
2026-05-07 17:53 38.76705 -9.13416 336 ft 9 kts 216°
2026-05-07 17:53 38.76661 -9.13468 338 ft 8 kts 247°
2026-05-07 17:53 38.76649 -9.13539 339 ft 8 kts 259°
2026-05-07 17:53 38.76633 -9.13631 339 ft 12 kts 257°
2026-05-07 17:54 38.76615 -9.13735 340 ft 11 kts 258°
2026-05-07 17:54 38.76599 -9.13839 340 ft 12 kts 257°
2026-05-07 17:54 38.76580 -9.13948 340 ft 13 kts 257°
2026-05-07 17:54 38.76532 -9.14050 338 ft 13 kts 228°
2026-05-07 17:55 38.76495 -9.14159 336 ft 14 kts 274°
2026-05-07 17:55 38.76525 -9.14263 336 ft 5 kts 292°
2026-05-07 17:55 38.76536 -9.14297 336 ft 1 kts 293°
2026-05-07 17:55 38.76537 -9.14298 336 ft 0 kts 292°
2026-05-07 17:56 38.76551 -9.14340 337 ft 10 kts 294°
2026-05-07 17:56 38.76615 -9.14400 339 ft 16 kts 10°
2026-05-07 17:56 38.76864 -9.14271 342 ft 71 kts 24°
2026-05-07 17:56 38.77519 -9.13917 356 ft 131 kts 23°
2026-05-07 17:57 38.78507 -9.13375 434 ft 172 kts 21°
2026-05-07 17:57 38.79236 -9.12932 764 ft 175 kts 25°
2026-05-07 17:57 38.80661 -9.11883 1598 ft 179 kts 27°
2026-05-07 17:57 38.81728 -9.11090 2270 ft 181 kts 26°
2026-05-07 17:58 38.82877 -9.10294 2721 ft 197 kts 25°
2026-05-07 17:58 38.84147 -9.09451 3151 ft 215 kts 25°
2026-05-07 17:58 38.85551 -9.08522 3559 ft 236 kts 26°
2026-05-07 17:58 38.87050 -9.07517 4035 ft 255 kts 34°
2026-05-07 17:59 38.88239 -9.05781 4459 ft 273 kts 69°
2026-05-07 17:59 38.88505 -9.03398 5195 ft 274 kts 100°
2026-05-07 17:59 38.87876 -9.01162 6088 ft 268 kts 127°
2026-05-07 17:59 38.86554 -8.99570 7039 ft 262 kts 152°
2026-05-07 18:00 38.84846 -8.98920 7883 ft 262 kts 178°
2026-05-07 18:00 38.83043 -8.99352 8658 ft 269 kts 203°
2026-05-07 18:00 38.81528 -9.00790 9361 ft 279 kts 225°
2026-05-07 18:00 38.80255 -9.02626 10125 ft 283 kts 226°
2026-05-07 18:01 38.78934 -9.04552 10686 ft 294 kts 226°
2026-05-07 18:01 38.77546 -9.06557 11043 ft 311 kts 226°
2026-05-07 18:01 38.76060 -9.08689 11369 ft 329 kts 226°
2026-05-07 18:01 38.74501 -9.10919 11669 ft 346 kts 226°
2026-05-07 18:02 38.71156 -9.15692 12670 ft 365 kts 226°
2026-05-07 18:02 38.69482 -9.18079 13371 ft 367 kts 226°
2026-05-07 18:02 38.67762 -9.20528 14054 ft 370 kts 226°
2026-05-07 18:03 38.66048 -9.22964 14701 ft 373 kts 226°
2026-05-07 18:03 38.64309 -9.25430 15344 ft 375 kts 226°
2026-05-07 18:03 38.62554 -9.27922 15993 ft 377 kts 226°
2026-05-07 18:03 38.60807 -9.30396 16632 ft 379 kts 226°
2026-05-07 18:04 38.59045 -9.32892 17242 ft 381 kts 226°
2026-05-07 18:04 38.57275 -9.35395 17828 ft 383 kts 226°
2026-05-07 18:04 38.55477 -9.37939 18409 ft 385 kts 226°
2026-05-07 18:04 38.53701 -9.40451 18962 ft 387 kts 226°
2026-05-07 18:05 38.51899 -9.42999 19526 ft 389 kts 227°
2026-05-07 18:05 38.50070 -9.45587 20029 ft 392 kts 227°
2026-05-07 18:05 38.48247 -9.48161 20534 ft 394 kts 227°
2026-05-07 18:05 38.46424 -9.50735 21032 ft 396 kts 227°
2026-05-07 18:06 38.44571 -9.53351 21544 ft 397 kts 227°
2026-05-07 18:06 38.42722 -9.55960 21989 ft 399 kts 227°
2026-05-07 18:06 38.40860 -9.58585 22423 ft 401 kts 227°
2026-05-07 18:06 38.39005 -9.61196 22854 ft 403 kts 227°
2026-05-07 18:07 38.37116 -9.63855 23251 ft 406 kts 227°
2026-05-07 18:07 38.35207 -9.66536 23680 ft 408 kts 227°
2026-05-07 18:07 38.33303 -9.69215 24111 ft 410 kts 227°
2026-05-07 18:07 38.31387 -9.71905 24511 ft 413 kts 227°
2026-05-07 18:08 38.29471 -9.74593 24892 ft 415 kts 227°
2026-05-07 18:08 38.27537 -9.77305 25296 ft 416 kts 227°
2026-05-07 18:08 38.25571 -9.80057 25709 ft 418 kts 227°
2026-05-07 18:08 38.23626 -9.82775 26086 ft 419 kts 227°
2026-05-07 18:09 38.21666 -9.85515 26424 ft 421 kts 227°
2026-05-07 18:09 38.19700 -9.88256 26720 ft 424 kts 227°
2026-05-07 18:09 38.17711 -9.91028 27027 ft 426 kts 227°
2026-05-07 18:09 38.15704 -9.93822 27331 ft 427 kts 227°
2026-05-07 18:10 38.13721 -9.96583 27608 ft 429 kts 227°
2026-05-07 18:10 38.11697 -9.99397 27937 ft 429 kts 227°
2026-05-07 18:10 38.09721 -10.02144 28322 ft 428 kts 226°
2026-05-07 18:10 38.07706 -10.04945 28732 ft 426 kts 227°
2026-05-07 18:11 38.05717 -10.07704 29133 ft 424 kts 227°
2026-05-07 18:11 38.04398 -10.09533 29383 ft 423 kts 227°
2026-05-07 18:11 38.01742 -10.13213 29859 ft 422 kts 227°
2026-05-07 18:11 37.99790 -10.15915 30221 ft 421 kts 227°
2026-05-07 18:12 37.97813 -10.18649 30599 ft 419 kts 227°
2026-05-07 18:12 37.95864 -10.21345 31004 ft 416 kts 226°
2026-05-07 18:12 37.93903 -10.24052 31410 ft 413 kts 227°
2026-05-07 18:12 37.91979 -10.26704 31783 ft 411 kts 227°
2026-05-07 18:13 37.90050 -10.29363 32163 ft 408 kts 227°
2026-05-07 18:13 37.88147 -10.31983 32533 ft 405 kts 226°
2026-05-07 18:13 37.86234 -10.34611 32872 ft 404 kts 227°
2026-05-07 18:13 37.84342 -10.37205 33196 ft 402 kts 226°
2026-05-07 18:14 37.82460 -10.39789 33526 ft 400 kts 227°
2026-05-07 18:14 37.80563 -10.42392 33844 ft 398 kts 226°
2026-05-07 18:14 37.78704 -10.44939 34156 ft 396 kts 226°
2026-05-07 18:14 37.76836 -10.47497 34431 ft 394 kts 226°
2026-05-07 18:15 37.74995 -10.50016 34669 ft 393 kts 227°
2026-05-07 18:15 37.73122 -10.52578 34904 ft 392 kts 226°
2026-05-07 18:15 37.71295 -10.55073 35126 ft 391 kts 227°
2026-05-07 18:15 37.69443 -10.57602 35345 ft 390 kts 227°
2026-05-07 18:16 37.67606 -10.60110 35502 ft 390 kts 226°
2026-05-07 18:16 37.65754 -10.62638 35633 ft 390 kts 226°
2026-05-07 18:16 37.63908 -10.65152 35753 ft 391 kts 226°
2026-05-07 18:16 37.62062 -10.67664 35883 ft 391 kts 226°
2026-05-07 18:17 37.60221 -10.70169 36040 ft 391 kts 226°
2026-05-07 18:17 37.58373 -10.72681 36194 ft 390 kts 226°
2026-05-07 18:17 37.56524 -10.75189 36312 ft 390 kts 226°
2026-05-07 18:17 37.54689 -10.77684 36447 ft 390 kts 226°
2026-05-07 18:18 37.52847 -10.80181 36586 ft 390 kts 226°
2026-05-07 18:18 37.50987 -10.82700 36695 ft 391 kts 226°
2026-05-07 18:18 37.49135 -10.85207 36789 ft 391 kts 226°
2026-05-07 18:18 37.47282 -10.87716 36917 ft 391 kts 226°
2026-05-07 18:19 37.45423 -10.90229 36920 ft 392 kts 226°
2026-05-07 18:19 37.41725 -10.95222 36922 ft 391 kts 226°
2026-05-07 18:20 37.38016 -11.00221 36923 ft 391 kts 226°
2026-05-07 18:20 37.34291 -11.05234 36916 ft 391 kts 226°
2026-05-07 18:21 37.30583 -11.10220 36908 ft 391 kts 225°
2026-05-07 18:21 37.26873 -11.15197 36899 ft 391 kts 226°
2026-05-07 18:22 37.23140 -11.20196 36906 ft 391 kts 226°
2026-05-07 18:22 37.19424 -11.25172 36907 ft 392 kts 225°
2026-05-07 18:23 37.15705 -11.30138 36903 ft 391 kts 225°
2026-05-07 18:23 37.11966 -11.35125 36913 ft 392 kts 225°
2026-05-07 18:24 37.08239 -11.40090 36905 ft 392 kts 225°
2026-05-07 18:24 37.04493 -11.45065 36919 ft 392 kts 225°
2026-05-07 18:25 37.00750 -11.50039 36902 ft 393 kts 225°
2026-05-07 18:25 36.97020 -11.54979 36912 ft 393 kts 225°
2026-05-07 18:26 36.93280 -11.59927 36904 ft 391 kts 225°
2026-05-07 18:26 36.89551 -11.64857 36914 ft 392 kts 225°
2026-05-07 18:27 36.85777 -11.69834 36914 ft 392 kts 224°
2026-05-07 18:27 36.82049 -11.74746 36912 ft 392 kts 224°
2026-05-07 18:28 36.78281 -11.79705 36917 ft 393 kts 224°
2026-05-07 18:28 36.74527 -11.84632 36916 ft 392 kts 224°
2026-05-07 18:29 36.70779 -11.89548 36911 ft 393 kts 224°
2026-05-07 18:29 36.67004 -11.94491 36914 ft 393 kts 224°
2026-05-07 18:30 36.63245 -11.99406 36915 ft 392 kts 224°
2026-05-07 18:30 36.59486 -12.04314 36919 ft 393 kts 224°
2026-05-07 18:31 36.55711 -12.09234 36916 ft 393 kts 224°
2026-05-07 18:31 36.51941 -12.14139 36915 ft 393 kts 224°
2026-05-07 18:32 36.48179 -12.19031 36918 ft 393 kts 224°
2026-05-07 18:32 36.44381 -12.23960 36918 ft 393 kts 224°
2026-05-07 18:33 36.40606 -12.28854 36910 ft 393 kts 224°
2026-05-07 18:33 36.36843 -12.33719 36913 ft 394 kts 224°
2026-05-07 18:34 36.33030 -12.38648 36919 ft 394 kts 224°
2026-05-07 18:34 36.29248 -12.43520 36918 ft 393 kts 224°
2026-05-07 18:35 36.25444 -12.48421 36921 ft 393 kts 224°
2026-05-07 18:35 36.21652 -12.53295 36916 ft 394 kts 224°
2026-05-07 18:36 36.17843 -12.58186 36915 ft 394 kts 224°
2026-05-07 18:36 36.14039 -12.63064 36905 ft 394 kts 224°
2026-05-07 18:37 36.10237 -12.67930 36900 ft 394 kts 224°
2026-05-07 18:37 36.06453 -12.72765 36895 ft 393 kts 223°
2026-05-07 18:38 36.02643 -12.77625 36908 ft 394 kts 224°
2026-05-07 18:38 35.98826 -12.82494 36906 ft 396 kts 224°
2026-05-07 18:39 35.94991 -12.87373 36914 ft 396 kts 224°
2026-05-07 18:39 35.91172 -12.92225 36931 ft 398 kts 224°
2026-05-07 18:40 35.87304 -12.97133 36918 ft 398 kts 224°
2026-05-07 18:40 35.83465 -13.02002 36909 ft 398 kts 224°
2026-05-07 18:41 35.79606 -13.06885 36926 ft 398 kts 224°
2026-05-07 18:41 35.75755 -13.11744 36914 ft 399 kts 224°
2026-05-07 18:42 35.71878 -13.16634 36915 ft 398 kts 224°
2026-05-07 18:42 35.68027 -13.21486 36904 ft 399 kts 224°
2026-05-07 18:43 35.64164 -13.26341 36909 ft 399 kts 224°
2026-05-07 18:43 35.60298 -13.31198 36916 ft 399 kts 224°
2026-05-07 18:44 35.56412 -13.36071 36905 ft 400 kts 225°
2026-05-07 18:44 35.52535 -13.40925 36910 ft 401 kts 225°
2026-05-07 18:45 35.48626 -13.45809 36911 ft 401 kts 225°
2026-05-07 18:45 35.44710 -13.50699 36912 ft 402 kts 225°
2026-05-07 18:46 35.40818 -13.55551 36915 ft 401 kts 225°
2026-05-07 18:46 35.36895 -13.60435 36911 ft 401 kts 225°
2026-05-07 18:47 35.32990 -13.65288 36907 ft 401 kts 225°
2026-05-07 18:47 35.29068 -13.70154 36904 ft 402 kts 225°
2026-05-07 18:48 35.25143 -13.75017 36900 ft 402 kts 225°
2026-05-07 18:48 35.21209 -13.79886 36904 ft 402 kts 225°
2026-05-07 18:49 35.17282 -13.84741 36902 ft 404 kts 225°
2026-05-07 18:49 35.13331 -13.89617 36914 ft 404 kts 225°
2026-05-07 18:50 35.09372 -13.94494 36923 ft 405 kts 225°
2026-05-07 18:50 35.05435 -13.99335 36916 ft 403 kts 225°
2026-05-07 18:51 35.01488 -14.04185 36928 ft 403 kts 225°
2026-05-07 18:51 34.97519 -14.09052 36920 ft 404 kts 226°
2026-05-07 18:52 34.93572 -14.13887 36922 ft 405 kts 226°
2026-05-07 18:52 34.89599 -14.18750 36929 ft 405 kts 226°
2026-05-07 18:53 34.85614 -14.23613 36917 ft 407 kts 226°
2026-05-07 18:53 34.81627 -14.28479 36919 ft 408 kts 226°
2026-05-07 18:54 34.77626 -14.33350 36923 ft 408 kts 226°
2026-05-07 18:54 34.73607 -14.38239 36925 ft 408 kts 226°
2026-05-07 18:55 34.69597 -14.43110 36917 ft 409 kts 226°
2026-05-07 18:55 34.65606 -14.47947 36928 ft 408 kts 226°
2026-05-07 18:56 34.61592 -14.52810 36911 ft 409 kts 226°
2026-05-07 18:56 34.57582 -14.57656 36931 ft 409 kts 227°
2026-05-07 18:57 34.53537 -14.62542 36925 ft 409 kts 227°
2026-05-07 18:57 34.49521 -14.67387 36916 ft 410 kts 226°
2026-05-07 18:58 34.45479 -14.72253 36926 ft 411 kts 226°
2026-05-07 18:58 34.41428 -14.77125 36919 ft 411 kts 226°
2026-05-07 18:59 34.37353 -14.81983 36911 ft 411 kts 227°
2026-05-07 18:59 34.33287 -14.86831 36914 ft 411 kts 226°
2026-05-07 19:00 34.29231 -14.91659 36919 ft 413 kts 227°
2026-05-07 19:00 34.25146 -14.96521 36925 ft 413 kts 227°
2026-05-07 19:01 34.21061 -15.01372 36923 ft 413 kts 227°
2026-05-07 19:01 34.16973 -15.06221 36932 ft 413 kts 227°
2026-05-07 19:02 34.12877 -15.11076 36934 ft 413 kts 227°
2026-05-07 19:02 34.08777 -15.15925 36932 ft 413 kts 227°
2026-05-07 19:03 34.04676 -15.20770 36932 ft 412 kts 227°
2026-05-07 19:03 34.00599 -15.25579 36936 ft 413 kts 227°
2026-05-07 19:04 33.96486 -15.30422 36825 ft 408 kts 227°
2026-05-07 19:04 33.94479 -15.32783 36373 ft 405 kts 228°
2026-05-07 19:04 33.92462 -15.35154 35610 ft 408 kts 228°
2026-05-07 19:04 33.90446 -15.37525 34933 ft 411 kts 228°
2026-05-07 19:05 33.88410 -15.39918 34239 ft 412 kts 228°
2026-05-07 19:05 33.86353 -15.42335 33552 ft 411 kts 228°
2026-05-07 19:05 33.84335 -15.44698 32824 ft 412 kts 228°
2026-05-07 19:05 33.82276 -15.47107 31982 ft 415 kts 229°
2026-05-07 19:06 33.80218 -15.49512 31051 ft 418 kts 229°
2026-05-07 19:06 33.76070 -15.54361 27950 ft 426 kts 230°
2026-05-07 19:06 33.73991 -15.56799 25833 ft 438 kts 230°
2026-05-07 19:07 33.71790 -15.59380 24058 ft 449 kts 230°
2026-05-07 19:07 33.69566 -15.61976 23342 ft 439 kts 230°
2026-05-07 19:07 33.67414 -15.64470 23023 ft 423 kts 230°
2026-05-07 19:07 33.65346 -15.66869 22700 ft 410 kts 230°
2026-05-07 19:08 33.63330 -15.69224 22338 ft 404 kts 230°
2026-05-07 19:08 33.61306 -15.71582 21906 ft 402 kts 230°
2026-05-07 19:08 33.59318 -15.73899 21402 ft 400 kts 230°
2026-05-07 19:08 33.57351 -15.76190 20892 ft 396 kts 230°
2026-05-07 19:09 33.55366 -15.78493 20378 ft 392 kts 230°
2026-05-07 19:09 33.53436 -15.80747 19805 ft 389 kts 230°
2026-05-07 19:09 33.51514 -15.83000 19206 ft 387 kts 230°
2026-05-07 19:09 33.49601 -15.85246 18618 ft 384 kts 231°
2026-05-07 19:10 33.47711 -15.87463 18061 ft 381 kts 230°
2026-05-07 19:10 33.45825 -15.89675 17500 ft 378 kts 230°
2026-05-07 19:10 33.43963 -15.91848 16927 ft 376 kts 228°
2026-05-07 19:10 33.41826 -15.93655 16344 ft 386 kts 212°
2026-05-07 19:11 33.39238 -15.94650 15749 ft 397 kts 195°
2026-05-07 19:11 33.36465 -15.94696 15295 ft 403 kts 180°
2026-05-07 19:11 33.33684 -15.94289 14923 ft 404 kts 177°
2026-05-07 19:11 33.30909 -15.93803 14549 ft 403 kts 175°
2026-05-07 19:12 33.28170 -15.93001 14176 ft 405 kts 168°
2026-05-07 19:12 33.25476 -15.92125 13799 ft 398 kts 175°
2026-05-07 19:12 33.22759 -15.92094 13418 ft 385 kts 194°
2026-05-07 19:12 33.20266 -15.93098 12799 ft 374 kts 214°
2026-05-07 19:13 33.18272 -15.95007 12168 ft 363 kts 233°
2026-05-07 19:13 33.16923 -15.97452 11674 ft 353 kts 245°
2026-05-07 19:13 33.15793 -16.00023 11210 ft 349 kts 245°
2026-05-07 19:13 33.14675 -16.02570 10765 ft 344 kts 245°
2026-05-07 19:14 33.13576 -16.05056 10557 ft 332 kts 245°
2026-05-07 19:14 33.12519 -16.07429 10443 ft 317 kts 245°
2026-05-07 19:14 33.11507 -16.09699 10329 ft 302 kts 245°
2026-05-07 19:14 33.10544 -16.11853 10224 ft 288 kts 245°
2026-05-07 19:15 33.09625 -16.13905 10158 ft 275 kts 245°
2026-05-07 19:15 33.08740 -16.15880 10095 ft 269 kts 245°
2026-05-07 19:15 33.07859 -16.17854 10017 ft 269 kts 245°
2026-05-07 19:15 33.06985 -16.19808 9884 ft 269 kts 245°
2026-05-07 19:16 33.06105 -16.21775 9533 ft 269 kts 245°
2026-05-07 19:16 33.05228 -16.23734 9185 ft 268 kts 245°
2026-05-07 19:16 33.04351 -16.25687 8835 ft 266 kts 245°
2026-05-07 19:16 33.03490 -16.27595 8515 ft 264 kts 245°
2026-05-07 19:17 33.02615 -16.29540 8153 ft 263 kts 245°
2026-05-07 19:17 33.01761 -16.31440 7799 ft 262 kts 245°
2026-05-07 19:17 33.00905 -16.33338 7452 ft 261 kts 245°
2026-05-07 19:17 33.00055 -16.35222 7115 ft 259 kts 245°
2026-05-07 19:18 32.99195 -16.37131 6782 ft 257 kts 245°
2026-05-07 19:18 32.98362 -16.38977 6462 ft 255 kts 245°
2026-05-07 19:18 32.97529 -16.40824 6142 ft 253 kts 244°
2026-05-07 19:18 32.96690 -16.42684 5821 ft 252 kts 244°
2026-05-07 19:19 32.95866 -16.44510 5506 ft 250 kts 244°
2026-05-07 19:19 32.95092 -16.46325 5259 ft 245 kts 246°
2026-05-07 19:19 32.94358 -16.48090 5112 ft 235 kts 243°
2026-05-07 19:19 32.93452 -16.49689 4980 ft 227 kts 233°
2026-05-07 19:20 32.92420 -16.51035 4864 ft 219 kts 229°
2026-05-07 19:20 32.91318 -16.52329 4734 ft 219 kts 227°
2026-05-07 19:20 32.90244 -16.53565 4603 ft 211 kts 227°
2026-05-07 19:20 32.89209 -16.54759 4469 ft 202 kts 227°
2026-05-07 19:21 32.88226 -16.55899 4334 ft 199 kts 227°
2026-05-07 19:21 32.87248 -16.57038 4179 ft 192 kts 227°
2026-05-07 19:21 32.86322 -16.58118 4029 ft 182 kts 227°
2026-05-07 19:21 32.85426 -16.59167 3748 ft 177 kts 227°
2026-05-07 19:22 32.84589 -16.60146 3531 ft 161 kts 227°
2026-05-07 19:22 32.83833 -16.61029 3324 ft 145 kts 228°
2026-05-07 19:22 32.83126 -16.61856 3162 ft 143 kts 227°
2026-05-07 19:22 32.82414 -16.62691 3010 ft 143 kts 227°
2026-05-07 19:23 32.81702 -16.63526 2842 ft 143 kts 227°
2026-05-07 19:23 32.80989 -16.64361 2691 ft 151 kts 226°
2026-05-07 19:23 32.80223 -16.65257 2504 ft 155 kts 226°
2026-05-07 19:23 32.79412 -16.66095 2379 ft 156 kts 219°
2026-05-07 19:24 32.78510 -16.66822 2270 ft 156 kts 216°
2026-05-07 19:24 32.77657 -16.67614 2191 ft 153 kts 226°
2026-05-07 19:24 32.77000 -16.68541 2025 ft 143 kts 232°
2026-05-07 19:24 32.76363 -16.69451 1868 ft 141 kts 231°
2026-05-07 19:25 32.75742 -16.70330 1664 ft 140 kts 232°
2026-05-07 19:25 32.75092 -16.71198 1471 ft 140 kts 226°
2026-05-07 19:25 32.74406 -16.72013 1246 ft 140 kts 228°
2026-05-07 19:25 32.73677 -16.72844 1190 ft 155 kts 217°
2026-05-07 19:26 32.72669 -16.73240 1889 ft 157 kts 184°
2026-05-07 19:26 32.71600 -16.73128 2589 ft 158 kts 178°
2026-05-07 19:26 32.70455 -16.73067 3019 ft 173 kts 187°
2026-05-07 19:26 32.69136 -16.73268 3060 ft 209 kts 194°
2026-05-07 19:27 32.67643 -16.73676 2369 ft 238 kts 198°
2026-05-07 19:27 32.66013 -16.74307 1852 ft 242 kts 201°
2026-05-07 19:27 32.64513 -16.74933 2004 ft 220 kts 201°
2026-05-07 19:27 32.63088 -16.75542 2168 ft 217 kts 202°
2026-05-07 19:28 32.61666 -16.76152 2365 ft 218 kts 202°
2026-05-07 19:28 32.60233 -16.76760 2586 ft 218 kts 202°
2026-05-07 19:28 32.58802 -16.77369 2831 ft 219 kts 202°
2026-05-07 19:28 32.57376 -16.77984 2978 ft 219 kts 203°
2026-05-07 19:29 32.55944 -16.78601 2985 ft 217 kts 203°